{"data":{"norad_id":43107,"intl_designator":"2018-003A","name":"BEIDOU-3 M7 (C27)","alt_names":[],"object_type":"PAYLOAD","status":"ACTIVE","operator":null,"country":"PRC","launch_date":"2018-01-11","launch_site_code":"XICLF","launch_vehicle":null,"mission":null,"orbit_class":"UNKNOWN","rcs_meters":null,"size_class":null,"mass_kg":null,"dimensions":null,"purposes":["nav"],"wikipedia_slug":null,"has_3d_model":false,"image_url":null,"decayed_at":null,"tle_current":{"epoch":"2026-05-24T17:22:57.611424Z","epoch_age_seconds":102150,"freshness":"FRESH","line1":"1 43107U 18003A   26144.72427791 -.00000086  00000+0  00000+0 0  9996","line2":"2 43107  54.3496 303.1323 0005245  88.6329 271.4059  1.86227819 56918","mean_motion":1.86227819,"eccentricity":0.0005245,"inclination_deg":54.3496,"raan_deg":303.1323,"arg_perigee_deg":88.6329,"mean_anomaly_deg":271.4059,"bstar":0,"rev_number":5691,"period_min":773.24645035981,"perigee_km":21513.732381732,"apogee_km":21543.006306887,"semimajor_km":27906.506344309,"source":"CELESTRAK","updated_at":"2026-05-25T13:38:24.217109Z"}}}